Time,TemperatureF,DewpointF,PressureIn,WindDirection,WindDirectionDegrees,WindSpeedMPH,WindSpeedGustMPH,Humidity,HourlyPrecipIn,Conditions,Clouds,dailyrainin,SoftwareType,DateUTC
2013-09-06 00:12:00,69.0,-99.9,-100.00,SE,124,3.0,5.0,-999,0.00,,,0.00,,2013-09-06 05:12:00,
2013-09-06 00:23:00,69.0,-99.9,-100.00,SE,124,3.0,5.0,-999,0.00,,,0.00,,2013-09-06 05:23:00,
2013-09-06 00:43:00,68.0,-99.9,-100.00,SE,144,3.0,7.0,-999,0.00,,,0.00,,2013-09-06 05:43:00,
2013-09-06 00:52:00,68.0,-99.9,-100.00,SE,144,3.0,7.0,-999,0.00,,,0.00,,2013-09-06 05:52:00,
2013-09-06 01:12:00,67.0,-99.9,-100.00,SE,142,3.0,6.0,-999,0.00,,,0.00,,2013-09-06 06:12:00,
2013-09-06 01:22:00,67.0,-99.9,-100.00,SE,142,3.0,6.0,-999,0.00,,,0.00,,2013-09-06 06:22:00,
2013-09-06 01:42:00,66.0,-99.9,-100.00,SE,130,4.0,8.0,-999,0.00,,,0.00,,2013-09-06 06:42:00,
2013-09-06 01:53:00,66.0,-99.9,-100.00,SE,130,4.0,8.0,-999,0.00,,,0.00,,2013-09-06 06:53:00,
2013-09-06 02:00:00,65.0,-99.9,-100.00,SE,126,4.0,9.0,-999,0.00,,,0.00,,2013-09-06 07:00:00,
2013-09-06 02:12:00,65.0,-99.9,-100.00,SE,137,3.0,7.0,-999,0.00,,,0.00,,2013-09-06 07:12:00,
2013-09-06 02:23:00,65.0,-99.9,-100.00,SE,137,3.0,7.0,-999,0.00,,,0.00,,2013-09-06 07:23:00,
2013-09-06 02:42:00,65.0,-99.9,-100.00,SE,126,4.0,9.0,-999,0.00,,,0.00,,2013-09-06 07:42:00,
2013-09-06 02:52:00,65.0,-99.9,-100.00,SE,126,4.0,9.0,-999,0.00,,,0.00,,2013-09-06 07:52:00,
2013-09-06 03:43:00,63.0,-99.9,-100.00,East,85,4.0,6.0,-999,0.00,,,0.00,,2013-09-06 08:43:00,
2013-09-06 03:52:00,63.0,-99.9,-100.00,East,85,4.0,6.0,-999,0.00,,,0.00,,2013-09-06 08:52:00,
2013-09-06 04:11:00,63.0,-99.9,-100.00,ENE,78,1.0,3.0,-999,0.00,,,0.00,,2013-09-06 09:11:00,
2013-09-06 04:22:00,63.0,-99.9,-100.00,ENE,78,1.0,3.0,-999,0.00,,,0.00,,2013-09-06 09:22:00,
2013-09-06 04:43:00,63.0,-99.9,-100.00,East,90,3.0,6.0,-999,0.00,,,0.00,,2013-09-06 09:43:00,
2013-09-06 04:54:00,63.0,-99.9,-100.00,East,90,3.0,6.0,-999,0.00,,,0.00,,2013-09-06 09:54:00,
2013-09-06 05:13:00,62.0,-99.9,-100.00,SE,125,1.0,3.0,-999,0.00,,,0.00,,2013-09-06 10:13:00,
2013-09-06 05:23:00,62.0,-99.9,-100.00,SE,125,1.0,3.0,-999,0.00,,,0.00,,2013-09-06 10:23:00,
2013-09-06 05:43:00,62.0,-99.9,-100.00,ESE,108,2.0,5.0,-999,0.00,,,0.00,,2013-09-06 10:43:00,
2013-09-06 05:54:00,62.0,-99.9,-100.00,ESE,108,2.0,5.0,-999,0.00,,,0.00,,2013-09-06 10:54:00,
2013-09-06 06:12:00,61.0,-99.9,-100.00,ESE,110,3.0,5.0,-999,0.00,,,0.00,,2013-09-06 11:12:00,
2013-09-06 06:22:00,61.0,-99.9,-100.00,ESE,110,3.0,5.0,-999,0.00,,,0.00,,2013-09-06 11:22:00,
2013-09-06 06:42:00,61.0,-99.9,-100.00,ENE,78,2.0,4.0,-999,0.00,,,0.00,,2013-09-06 11:42:00,
2013-09-06 06:52:00,61.0,-99.9,-100.00,ENE,78,2.0,4.0,-999,0.00,,,0.00,,2013-09-06 11:52:00,
2013-09-06 07:12:00,61.0,-99.9,-100.00,SE,133,2.0,3.0,-999,0.00,,,0.00,,2013-09-06 12:12:00,
2013-09-06 07:22:00,61.0,-99.9,-100.00,SE,133,2.0,3.0,-999,0.00,,,0.00,,2013-09-06 12:22:00,
2013-09-06 07:42:00,61.0,-99.9,-100.00,SE,141,2.0,4.0,-999,0.00,,,0.00,,2013-09-06 12:42:00,
2013-09-06 07:52:00,61.0,-99.9,-100.00,SE,141,2.0,4.0,-999,0.00,,,0.00,,2013-09-06 12:52:00,
2013-09-06 08:11:00,63.0,-99.9,-100.00,SE,125,2.0,4.0,-999,0.00,,,0.00,,2013-09-06 13:11:00,
2013-09-06 08:22:00,63.0,-99.9,-100.00,SE,125,2.0,4.0,-999,0.00,,,0.00,,2013-09-06 13:22:00,
2013-09-06 08:42:00,64.0,-99.9,-100.00,SE,131,3.0,5.0,-999,0.00,,,0.00,,2013-09-06 13:42:00,
2013-09-06 08:53:00,64.0,-99.9,-100.00,SE,131,3.0,5.0,-999,0.00,,,0.00,,2013-09-06 13:53:00,
2013-09-06 09:11:00,65.0,-99.9,-100.00,SSE,150,2.0,5.0,-999,0.00,,,0.00,,2013-09-06 14:11:00,
2013-09-06 09:22:00,65.0,-99.9,-100.00,SSE,150,2.0,5.0,-999,0.00,,,0.00,,2013-09-06 14:22:00,
2013-09-06 09:42:00,68.0,-99.9,-100.00,SSE,155,2.0,6.0,-999,0.00,,,0.00,,2013-09-06 14:42:00,
2013-09-06 09:52:00,68.0,-99.9,-100.00,SSE,155,2.0,6.0,-999,0.00,,,0.00,,2013-09-06 14:52:00,
2013-09-06 10:12:00,70.0,-99.9,-100.00,SE,140,4.0,8.0,-999,0.00,,,0.00,,2013-09-06 15:12:00,
2013-09-06 10:22:00,70.0,-99.9,-100.00,SE,140,4.0,8.0,-999,0.00,,,0.00,,2013-09-06 15:22:00,
2013-09-06 10:43:00,71.0,-99.9,-100.00,SSE,153,4.0,9.0,-999,0.00,,,0.00,,2013-09-06 15:43:00,
2013-09-06 10:53:00,71.0,-99.9,-100.00,SSE,153,4.0,9.0,-999,0.00,,,0.00,,2013-09-06 15:53:00,
2013-09-06 11:13:00,75.0,-99.9,-100.00,SE,146,5.0,7.0,-999,0.00,,,0.00,,2013-09-06 16:13:00,
2013-09-06 11:24:00,75.0,-99.9,-100.00,SE,146,5.0,7.0,-999,0.00,,,0.00,,2013-09-06 16:24:00,
2013-09-06 11:43:00,75.0,-99.9,-100.00,SE,140,4.0,7.0,-999,0.00,,,0.00,,2013-09-06 16:43:00,
2013-09-06 11:54:00,75.0,-99.9,-100.00,SE,140,4.0,7.0,-999,0.00,,,0.00,,2013-09-06 16:54:00,
2013-09-06 12:13:00,79.0,-99.9,-100.00,SE,141,3.0,5.0,-999,0.00,,,0.00,,2013-09-06 17:13:00,
2013-09-06 12:24:00,79.0,-99.9,-100.00,SE,141,3.0,5.0,-999,0.00,,,0.00,,2013-09-06 17:24:00,
2013-09-06 12:43:00,79.0,-99.9,-100.00,SSE,153,4.0,7.0,-999,0.00,,,0.00,,2013-09-06 17:43:00,
2013-09-06 12:53:00,79.0,-99.9,-100.00,SSE,153,4.0,7.0,-999,0.00,,,0.00,,2013-09-06 17:53:00,
2013-09-06 13:12:00,83.0,-99.9,-100.00,SE,142,5.0,8.0,-999,0.00,,,0.00,,2013-09-06 18:12:00,
2013-09-06 13:22:00,83.0,-99.9,-100.00,SE,142,5.0,8.0,-999,0.00,,,0.00,,2013-09-06 18:22:00,
2013-09-06 13:42:00,84.0,-99.9,-100.00,SSE,160,4.0,9.0,-999,0.00,,,0.00,,2013-09-06 18:42:00,
2013-09-06 13:52:00,84.0,-99.9,-100.00,SSE,160,4.0,9.0,-999,0.00,,,0.00,,2013-09-06 18:52:00,
2013-09-06 14:12:00,85.0,-99.9,-100.00,SE,136,3.0,8.0,-999,0.00,,,0.00,,2013-09-06 19:12:00,
2013-09-06 14:22:00,85.0,-99.9,-100.00,SE,136,3.0,8.0,-999,0.00,,,0.00,,2013-09-06 19:22:00,
2013-09-06 14:43:00,86.0,-99.9,-100.00,SSE,166,3.0,11.0,-999,0.00,,,0.00,,2013-09-06 19:43:00,
2013-09-06 14:52:00,86.0,-99.9,-100.00,SSE,166,3.0,11.0,-999,0.00,,,0.00,,2013-09-06 19:52:00,
2013-09-06 15:12:00,86.0,-99.9,-100.00,South,170,2.0,11.0,-999,0.00,,,0.00,,2013-09-06 20:12:00,
2013-09-06 15:23:00,86.0,-99.9,-100.00,South,170,2.0,11.0,-999,0.00,,,0.00,,2013-09-06 20:23:00,
2013-09-06 15:43:00,86.0,-99.9,-100.00,SSE,153,6.0,15.0,-999,0.00,,,0.00,,2013-09-06 20:43:00,
2013-09-06 15:52:00,86.0,-99.9,-100.00,SSE,153,6.0,15.0,-999,0.00,,,0.00,,2013-09-06 20:52:00,
2013-09-06 16:12:00,87.0,-99.9,-100.00,SSW,193,2.0,9.0,-999,0.00,,,0.00,,2013-09-06 21:12:00,
2013-09-06 16:23:00,87.0,-99.9,-100.00,SSW,193,2.0,9.0,-999,0.00,,,0.00,,2013-09-06 21:23:00,
2013-09-06 16:43:00,88.0,-99.9,-100.00,SSE,160,2.0,6.0,-999,0.00,,,0.00,,2013-09-06 21:43:00,
2013-09-06 16:55:00,88.0,-99.9,-100.00,SSE,160,2.0,6.0,-999,0.00,,,0.00,,2013-09-06 21:55:00,
2013-09-06 17:13:00,87.0,-99.9,-100.00,SSE,165,2.0,8.0,-999,0.00,,,0.00,,2013-09-06 22:13:00,
2013-09-06 17:23:00,87.0,-99.9,-100.00,SSE,165,2.0,8.0,-999,0.00,,,0.00,,2013-09-06 22:23:00,
2013-09-06 17:44:00,87.0,-99.9,-100.00,South,187,1.0,5.0,-999,0.00,,,0.00,,2013-09-06 22:44:00,
2013-09-06 17:54:00,87.0,-99.9,-100.00,South,187,1.0,5.0,-999,0.00,,,0.00,,2013-09-06 22:54:00,
2013-09-06 18:13:00,87.0,-99.9,-100.00,SSW,213,2.0,5.0,-999,0.00,,,0.00,,2013-09-06 23:13:00,
2013-09-06 18:23:00,87.0,-99.9,-100.00,SSW,213,2.0,5.0,-999,0.00,,,0.00,,2013-09-06 23:23:00,
2013-09-06 18:43:00,85.0,-99.9,-100.00,South,189,1.0,4.0,-999,0.00,,,0.00,,2013-09-06 23:43:00,
2013-09-06 18:52:00,85.0,-99.9,-100.00,South,189,1.0,4.0,-999,0.00,,,0.00,,2013-09-06 23:52:00,
2013-09-06 19:12:00,84.0,-99.9,-100.00,SSE,149,1.0,3.0,-999,0.00,,,0.00,,2013-09-07 00:12:00,
2013-09-06 19:22:00,84.0,-99.9,-100.00,SSE,149,1.0,3.0,-999,0.00,,,0.00,,2013-09-07 00:22:00,
2013-09-06 19:42:00,82.0,-99.9,-100.00,SE,129,0.0,1.0,-999,0.00,,,0.00,,2013-09-07 00:42:00,
2013-09-06 19:52:00,82.0,-99.9,-100.00,SE,129,0.0,1.0,-999,0.00,,,0.00,,2013-09-07 00:52:00,
2013-09-06 20:12:00,81.0,-99.9,-100.00,ESE,108,0.0,1.0,-999,0.00,,,-99.99,,2013-09-07 01:12:00,
2013-09-06 20:22:00,81.0,-99.9,-100.00,ESE,108,0.0,1.0,-999,0.00,,,-99.99,,2013-09-07 01:22:00,
2013-09-06 20:42:00,79.0,-99.9,-100.00,SSE,167,1.0,3.0,-999,0.00,,,0.00,,2013-09-07 01:42:00,
2013-09-06 20:54:00,79.0,-99.9,-100.00,SSE,167,1.0,3.0,-999,0.00,,,0.00,,2013-09-07 01:54:00,
2013-09-06 21:12:00,78.0,-99.9,-100.00,SSW,196,1.0,2.0,-999,0.00,,,0.00,,2013-09-07 02:12:00,
2013-09-06 21:23:00,78.0,-99.9,-100.00,SSW,196,1.0,2.0,-999,0.00,,,0.00,,2013-09-07 02:23:00,
2013-09-06 21:43:00,78.0,-99.9,-100.00,South,170,0.0,2.0,-999,0.00,,,0.00,,2013-09-07 02:43:00,
2013-09-06 21:52:00,78.0,-99.9,-100.00,South,170,0.0,2.0,-999,0.00,,,0.00,,2013-09-07 02:52:00,
2013-09-06 22:12:00,74.0,-99.9,-100.00,SW,229,3.0,4.0,-999,0.00,,,0.00,,2013-09-07 03:12:00,
2013-09-06 22:23:00,74.0,-99.9,-100.00,SW,229,3.0,4.0,-999,0.00,,,0.00,,2013-09-07 03:23:00,
2013-09-06 22:45:00,75.0,-99.9,-100.00,SSW,202,1.0,3.0,-999,0.00,,,0.00,,2013-09-07 03:45:00,
2013-09-06 22:55:00,75.0,-99.9,-100.00,SSW,202,1.0,3.0,-999,0.00,,,0.00,,2013-09-07 03:55:00,
2013-09-06 23:14:00,74.0,-99.9,-100.00,SW,229,1.0,3.0,-999,0.00,,,0.00,,2013-09-07 04:14:00,
2013-09-06 23:24:00,74.0,-99.9,-100.00,SW,229,1.0,3.0,-999,0.00,,,0.00,,2013-09-07 04:24:00,
2013-09-06 23:30:00,74.0,-99.9,-100.00,SW,223,0.0,2.0,-999,0.00,,,0.00,,2013-09-07 04:30:00,
2013-09-06 23:43:00,74.0,-99.9,-100.00,South,182,0.0,2.0,-999,0.00,,,0.00,,2013-09-07 04:43:00,
2013-09-06 23:54:00,74.0,-99.9,-100.00,South,182,0.0,2.0,-999,0.00,,,0.00,,2013-09-07 04:54:00,